| time (UTC) | temp F | wind direction | speed MPH | gust MPH | rain 1hr in | rain 24hr in | rain mn in | humidity % | barometer mb |
| 20260906060033 | 82 | 190 | 0.0 | 2.0 | 0.00 | 0.00 | 0.00 | 43 | 1017.2 |
| 20260906055532 | 82 | 190 | 1.0 | 2.0 | 0.00 | 0.00 | 0.00 | 43 | 1017.2 |
| 20260906055031 | 81 | 190 | 0.0 | 2.0 | 0.00 | 0.00 | 0.00 | 44 | 1017.1 |
| 20260906054539 | 81 | 190 | 0.0 | 2.0 | 0.00 | 0.00 | 0.00 | 45 | 1017.2 |
| 20260906054031 | 81 | 190 | 0.0 | 2.0 | 0.00 | 0.00 | 0.00 | 45 | 1017.2 |
| 20260906053531 | 81 | 190 | 0.0 | 4.0 | 0.00 | 0.00 | 0.00 | 45 | 1017.2 |
| 20260906053031 | 81 | 223 | 2.0 | 4.0 | 0.00 | 0.00 | 0.00 | 45 | 1017.2 |
| 20260906052532 | 81 | 63 | 0.0 | 0.0 | 0.00 | 0.00 | 0.00 | 44 | 1017.0 |
| 20260906052031 | 81 | 63 | 0.0 | 1.0 | 0.00 | 0.00 | 0.00 | 44 | 1017.0 |
| 20260906051531 | 81 | 63 | 0.0 | 2.0 | 0.00 | 0.00 | 0.00 | 43 | 1017.0 |
| 20260906051031 | 82 | 63 | 0.0 | 2.0 | 0.00 | 0.00 | 0.00 | 43 | 1017.0 |
| 20260906050531 | 82 | 57 | 0.0 | 2.0 | 0.00 | 0.00 | 0.00 | 43 | 1016.9 |
| 20260906050033 | 82 | 57 | 0.0 | 2.0 | 0.00 | 0.00 | 0.00 | 42 | 1016.9 |
| 20260906045531 | 83 | 57 | 0.0 | 2.0 | 0.00 | 0.00 | 0.00 | 41 | 1016.9 |
| 20260906045030 | 83 | 57 | 0.0 | 4.0 | 0.00 | 0.00 | 0.00 | 41 | 1016.9 |
| 20260906044530 | 83 | 47 | 0.0 | 5.0 | 0.00 | 0.00 | 0.00 | 41 | 1016.9 |
| 20260906044032 | 83 | 61 | 1.0 | 5.0 | 0.00 | 0.00 | 0.00 | 41 | 1016.9 |
| 20260906043529 | 83 | 62 | 1.0 | 4.0 | 0.00 | 0.00 | 0.00 | 41 | 1016.9 |
| 20260906043032 | 83 | 62 | 0.0 | 4.0 | 0.00 | 0.00 | 0.00 | 40 | 1016.9 |
| 20260906042530 | 84 | 62 | 0.0 | 4.0 | 0.00 | 0.00 | 0.00 | 40 | 1016.9 |
| 20260906042029 | 84 | 62 | 0.0 | 5.0 | 0.00 | 0.00 | 0.00 | 41 | 1016.9 |
| 20260906041529 | 84 | 62 | 2.0 | 5.0 | 0.00 | 0.00 | 0.00 | 40 | 1016.9 |
| 20260906041030 | 84 | 62 | 0.0 | 4.0 | 0.00 | 0.00 | 0.00 | 40 | 1016.9 |
| 20260906040530 | 84 | 62 | 0.0 | 4.0 | 0.00 | 0.00 | 0.00 | 40 | 1016.9 |
| 20260906040029 | 84 | 67 | 0.0 | 2.0 | 0.00 | 0.00 | 0.00 | 40 | 1016.9 |
| 20260906035529 | 84 | 73 | 0.0 | 2.0 | 0.00 | 0.00 | 0.00 | 41 | 1016.8 |
| 20260906035028 | 85 | 73 | 0.0 | 2.0 | 0.00 | 0.00 | 0.00 | 40 | 1016.8 |
| 20260906034528 | 86 | 49 | 0.0 | 2.0 | 0.00 | 0.00 | 0.00 | 39 | 1016.8 |
| 20260906034029 | 86 | 38 | 0.0 | 7.0 | 0.00 | 0.00 | 0.00 | 38 | 1016.7 |
| 20260906033528 | 86 | 22 | 2.0 | 7.0 | 0.00 | 0.00 | 0.00 | 38 | 1016.7 |
| 20260906033028 | 86 | 10 | 1.0 | 4.0 | 0.00 | 0.00 | 0.00 | 38 | 1016.7 |
| 20260906032526 | 86 | 47 | 0.0 | 6.0 | 0.00 | 0.00 | 0.00 | 37 | 1016.7 |
| 20260906032026 | 86 | 9 | 1.0 | 8.0 | 0.00 | 0.00 | 0.00 | 37 | 1016.6 |
| 20260906031526 | 86 | 351 | 2.0 | 8.0 | 0.00 | 0.00 | 0.00 | 36 | 1016.6 |
| 20260906031024 | 86 | 4 | 1.0 | 5.0 | 0.00 | 0.00 | 0.00 | 36 | 1016.5 |
| 20260906030522 | 86 | 44 | 2.0 | 5.0 | 0.00 | 0.00 | 0.00 | 36 | 1016.5 |
| 20260906030023 | 86 | 349 | 1.0 | 5.0 | 0.00 | 0.00 | 0.00 | 36 | 1016.4 |
| 20260906025524 | 86 | 350 | 0.0 | 6.0 | 0.00 | 0.00 | 0.00 | 36 | 1016.4 |
| 20260906025022 | 86 | 15 | 0.0 | 8.0 | 0.00 | 0.00 | 0.00 | 36 | 1016.3 |
| 20260906024522 | 86 | 4 | 2.0 | 8.0 | 0.00 | 0.00 | 0.00 | 37 | 1016.2 |
| 20260906024022 | 86 | 4 | 0.0 | 0.0 | 0.00 | 0.00 | 0.00 | 38 | 1016.2 |
| 20260906023525 | 86 | 4 | 0.0 | 0.0 | 0.00 | 0.00 | 0.00 | 38 | 1016.1 |
| 20260906023024 | 86 | 4 | 0.0 | 2.0 | 0.00 | 0.00 | 0.00 | 37 | 1016.1 |
| 20260906022521 | 86 | 4 | 0.0 | 2.0 | 0.00 | 0.00 | 0.00 | 38 | 1016.1 |
| 20260906022023 | 86 | 4 | 1.0 | 2.0 | 0.00 | 0.00 | 0.00 | 37 | 1016.1 |
| 20260906021522 | 86 | 7 | 0.0 | 4.0 | 0.00 | 0.00 | 0.00 | 37 | 1016.0 |
| 20260906021027 | 86 | 355 | 0.0 | 7.0 | 0.00 | 0.00 | 0.00 | 37 | 1016.0 |
| 20260906020521 | 86 | 354 | 2.0 | 8.0 | 0.00 | 0.00 | 0.00 | 37 | 1016.1 |
| 20260906020021 | 87 | 350 | 2.0 | 8.0 | 0.00 | 0.00 | 0.00 | 37 | 1016.1 |
| 20260906015522 | 87 | 344 | 3.0 | 8.0 | 0.00 | 0.02 | 0.00 | 36 | 1016.0 |
| 20260906015021 | 88 | 316 | 3.0 | 8.0 | 0.00 | 0.02 | 0.00 | 35 | 1015.9 |
| 20260906014525 | 88 | 24 | 4.0 | 10.0 | 0.00 | 0.02 | 0.00 | 35 | 1015.9 |
| 20260906014024 | 88 | 358 | 3.0 | 11.0 | 0.00 | 0.02 | 0.00 | 34 | 1015.8 |
| 20260906013520 | 89 | 11 | 6.0 | 11.0 | 0.00 | 0.02 | 0.00 | 34 | 1015.8 |
| 20260906013029 | 89 | 338 | 5.0 | 10.0 | 0.00 | 0.02 | 0.00 | 33 | 1015.7 |
| 20260906012520 | 89 | 342 | 6.0 | 10.0 | 0.00 | 0.02 | 0.00 | 33 | 1015.8 |
| 20260906012024 | 90 | 3 | 2.0 | 8.0 | 0.00 | 0.02 | 0.00 | 33 | 1015.7 |
| 20260906011520 | 90 | 354 | 1.0 | 6.0 | 0.00 | 0.02 | 0.00 | 33 | 1015.6 |
| 20260906011019 | 90 | 286 | 1.0 | 6.0 | 0.00 | 0.02 | 0.00 | 33 | 1015.5 |
| 20260906010619 | 90 | 210 | 2.0 | 6.0 | 0.00 | 0.02 | 0.00 | 33 | 1015.4 |
| 20260906010019 | 90 | 227 | 2.0 | 6.0 | 0.00 | 0.02 | 0.00 | 33 | 1015.3 |
| 20260906005518 | 90 | 223 | 3.0 | 7.0 | 0.00 | 0.04 | 0.00 | 33 | 1015.3 |
| 20260906005018 | 90 | 261 | 3.0 | 7.0 | 0.00 | 0.04 | 0.00 | 33 | 1015.3 |
| 20260906004518 | 91 | 242 | 3.0 | 9.0 | 0.00 | 0.04 | 0.00 | 33 | 1015.2 |
| 20260906004021 | 91 | 222 | 4.0 | 9.0 | 0.00 | 0.04 | 0.00 | 33 | 1015.2 |
| 20260906003520 | 91 | 241 | 4.0 | 10.0 | 0.00 | 0.04 | 0.00 | 31 | 1015.2 |
| 20260906003018 | 92 | 175 | 4.0 | 10.0 | 0.00 | 0.04 | 0.00 | 32 | 1015.1 |
| 20260906002517 | 93 | 200 | 4.0 | 7.0 | 0.00 | 0.04 | 0.00 | 31 | 1015.2 |
| 20260906002018 | 92 | 180 | 2.0 | 7.0 | 0.00 | 0.04 | 0.00 | 30 | 1015.2 |
| 20260906001520 | 92 | 188 | 2.0 | 6.0 | 0.00 | 0.04 | 0.00 | 29 | 1015.2 |
| 20260906001017 | 92 | 223 | 3.0 | 6.0 | 0.00 | 0.04 | 0.00 | 29 | 1015.2 |
| 20260906000517 | 92 | 269 | 2.0 | 6.0 | 0.00 | 0.04 | 0.00 | 30 | 1015.2 |
| 20260906000035 | 92 | 245 | 3.0 | 6.0 | 0.00 | 0.04 | 0.00 | 30 | 1015.3 |
| 20260905235517 | 92 | 263 | 2.0 | 5.0 | 0.00 | 0.04 | 0.00 | 29 | 1015.2 |
| 20260905235018 | 92 | 263 | 3.0 | 6.0 | 0.00 | 0.04 | 0.00 | 29 | 1015.3 |
| 20260905234516 | 92 | 248 | 2.0 | 9.0 | 0.00 | 0.04 | 0.00 | 29 | 1015.2 |
| 20260905234016 | 93 | 281 | 6.0 | 9.0 | 0.00 | 0.04 | 0.00 | 29 | 1015.2 |
| 20260905233516 | 93 | 276 | 3.0 | 6.0 | 0.00 | 0.04 | 0.00 | 28 | 1015.1 |
| 20260905233016 | 94 | 217 | 1.0 | 6.0 | 0.00 | 0.04 | 0.00 | 27 | 1015.2 |
| 20260905232517 | 94 | 180 | 4.0 | 6.0 | 0.00 | 0.04 | 0.00 | 27 | 1015.3 |
| 20260905232016 | 95 | 153 | 0.0 | 5.0 | 0.00 | 0.04 | 0.00 | 27 | 1015.3 |
| 20260905231516 | 95 | 207 | 2.0 | 8.0 | 0.00 | 0.04 | 0.00 | 26 | 1015.3 |
| 20260905231015 | 95 | 161 | 3.0 | 7.0 | 0.00 | 0.04 | 0.00 | 26 | 1015.2 |
| 20260905230515 | 94 | 244 | 1.0 | 8.0 | 0.00 | 0.04 | 0.00 | 28 | 1015.3 |
| 20260905230014 | 94 | 216 | 6.0 | 9.0 | 0.00 | 0.04 | 0.00 | 27 | 1015.3 |
| 20260905225518 | 95 | 249 | 5.0 | 9.0 | 0.00 | 0.04 | 0.00 | 27 | 1015.3 |
| 20260905225013 | 96 | 265 | 2.0 | 5.0 | 0.00 | 0.04 | 0.00 | 27 | 1015.4 |
| 20260905224513 | 95 | 213 | 1.0 | 5.0 | 0.00 | 0.04 | 0.00 | 28 | 1015.4 |
| 20260905224012 | 95 | 182 | 2.0 | 5.0 | 0.00 | 0.04 | 0.00 | 27 | 1015.4 |
| 20260905223512 | 95 | 1 | 1.0 | 5.0 | 0.00 | 0.04 | 0.00 | 27 | 1015.4 |
| 20260905223011 | 94 | 203 | 1.0 | 4.0 | 0.00 | 0.04 | 0.00 | 29 | 1015.5 |
| 20260905222511 | 94 | 214 | 0.0 | 5.0 | 0.00 | 0.04 | 0.00 | 28 | 1015.6 |
| 20260905222011 | 95 | 180 | 2.0 | 5.0 | 0.00 | 0.04 | 0.00 | 27 | 1015.5 |
| 20260905221511 | 95 | 222 | 2.0 | 7.0 | 0.00 | 0.04 | 0.00 | 27 | 1015.6 |
| 20260905221011 | 95 | 158 | 2.0 | 8.0 | 0.00 | 0.04 | 0.00 | 28 | 1015.6 |
| 20260905220513 | 95 | 200 | 3.0 | 8.0 | 0.00 | 0.04 | 0.00 | 28 | 1015.5 |
| 20260905220012 | 95 | 239 | 4.0 | 9.0 | 0.00 | 0.04 | 0.00 | 28 | 1015.6 |
| 20260905215510 | 95 | 302 | 3.0 | 9.0 | 0.00 | 0.04 | 0.00 | 28 | 1015.6 |
| 20260905215012 | 95 | 263 | 5.0 | 9.0 | 0.00 | 0.04 | 0.00 | 28 | 1015.6 |
| 20260905214508 | 95 | 315 | 3.0 | 9.0 | 0.00 | 0.04 | 0.00 | 28 | 1015.6 |
| 20260905214008 | 94 | 249 | 2.0 | 6.0 | 0.00 | 0.04 | 0.00 | 30 | 1015.7 |
| 20260905213507 | 94 | 316 | 0.0 | 8.0 | 0.00 | 0.04 | 0.00 | 31 | 1015.8 |
| 20260905213006 | 93 | 221 | 2.0 | 8.0 | 0.00 | 0.04 | 0.00 | 30 | 1016.0 |
| 20260905212507 | 94 | 236 | 2.0 | 7.0 | 0.00 | 0.04 | 0.00 | 29 | 1016.1 |
| 20260905212004 | 95 | 165 | 3.0 | 8.0 | 0.00 | 0.04 | 0.00 | 29 | 1016.2 |
| 20260905211505 | 95 | 271 | 3.0 | 8.0 | 0.00 | 0.04 | 0.00 | 30 | 1016.3 |
| 20260905211003 | 95 | 296 | 5.0 | 8.0 | 0.00 | 0.04 | 0.00 | 30 | 1016.3 |
| 20260905210503 | 94 | 151 | 0.0 | 7.0 | 0.00 | 0.04 | 0.00 | 30 | 1016.5 |
| 20260905210002 | 95 | 334 | 3.0 | 9.0 | 0.00 | 0.04 | 0.00 | 30 | 1016.6 |
| 20260905205501 | 94 | 272 | 2.0 | 9.0 | 0.00 | 0.04 | 0.00 | 31 | 1016.7 |
| 20260905205103 | 93 | 157 | 1.0 | 9.0 | 0.00 | 0.04 | 0.00 | 30 | 1016.8 |
| 20260905204603 | 94 | 207 | 4.0 | 7.0 | 0.00 | 0.04 | 0.00 | 30 | 1016.9 |
| 20260905204059 | 95 | 132 | 1.0 | 7.0 | 0.00 | 0.04 | 0.00 | 29 | 1016.9 |
| 20260905203558 | 92 | 76 | 2.0 | 7.0 | 0.00 | 0.04 | 0.00 | 33 | 1017.0 |
| 20260905203057 | 93 | 157 | 1.0 | 7.0 | 0.00 | 0.04 | 0.00 | 31 | 1017.0 |
| 20260905202557 | 92 | 272 | 2.0 | 8.0 | 0.00 | 0.04 | 0.00 | 31 | 1017.1 |
| 20260905202056 | 93 | 235 | 5.0 | 8.0 | 0.00 | 0.04 | 0.00 | 30 | 1017.1 |
| 20260905201556 | 93 | 266 | 4.0 | 10.0 | 0.00 | 0.04 | 0.00 | 31 | 1017.1 |
| 20260905201055 | 92 | 267 | 3.0 | 10.0 | 0.00 | 0.04 | 0.00 | 33 | 1017.2 |
| 20260905200555 | 92 | 225 | 3.0 | 8.0 | 0.00 | 0.04 | 0.00 | 32 | 1017.3 |
| 20260905200055 | 92 | 310 | 4.0 | 9.0 | 0.00 | 0.04 | 0.00 | 33 | 1017.3 |
| 20260905195553 | 93 | 244 | 2.0 | 10.0 | 0.00 | 0.04 | 0.00 | 33 | 1017.5 |
| 20260905195051 | 92 | 205 | 3.0 | 8.0 | 0.00 | 0.04 | 0.00 | 34 | 1017.5 |
| 20260905194607 | 91 | 149 | 4.0 | 9.0 | 0.00 | 0.04 | 0.00 | 35 | 1017.5 |
| 20260905194051 | 92 | 236 | 6.0 | 9.0 | 0.00 | 0.04 | 0.00 | 36 | 1017.7 |
| 20260905193553 | 91 | 118 | 2.0 | 9.0 | 0.00 | 0.04 | 0.00 | 35 | 1017.7 |
| 20260905193050 | 91 | 165 | 5.0 | 9.0 | 0.00 | 0.04 | 0.00 | 36 | 1017.8 |
| 20260905192549 | 91 | 199 | 3.0 | 9.0 | 0.00 | 0.04 | 0.00 | 37 | 1017.9 |
| 20260905192051 | 90 | 212 | 1.0 | 9.0 | 0.00 | 0.04 | 0.00 | 38 | 1018.1 |
| 20260905191556 | 90 | 233 | 6.0 | 9.0 | 0.00 | 0.04 | 0.00 | 37 | 1018.2 |
| 20260905191049 | 90 | 286 | 4.0 | 9.0 | 0.00 | 0.04 | 0.00 | 38 | 1018.2 |
| 20260905190551 | 90 | 213 | 4.0 | 9.0 | 0.00 | 0.04 | 0.00 | 38 | 1018.3 |
| 20260905190048 | 89 | 266 | 2.0 | 9.0 | 0.00 | 0.04 | 0.00 | 38 | 1018.4 |
| 20260905185550 | 90 | 190 | 4.0 | 9.0 | 0.00 | 0.04 | 0.00 | 38 | 1018.4 |
| 20260905185046 | 89 | 171 | 4.0 | 8.0 | 0.00 | 0.04 | 0.00 | 39 | 1018.6 |
| 20260905184607 | 89 | 119 | 1.0 | 7.0 | 0.00 | 0.04 | 0.00 | 39 | 1018.6 |
| 20260905184045 | 89 | 211 | 3.0 | 8.0 | 0.00 | 0.04 | 0.00 | 39 | 1018.7 |
| 20260905183544 | 89 | 178 | 4.0 | 8.0 | 0.00 | 0.04 | 0.00 | 39 | 1018.7 |
| 20260905183048 | 88 | 254 | 3.0 | 8.0 | 0.00 | 0.04 | 0.00 | 40 | 1018.9 |
| 20260905182543 | 89 | 295 | 4.0 | 8.0 | 0.00 | 0.04 | 0.00 | 40 | 1018.9 |
| 20260905182043 | 88 | 167 | 0.0 | 5.0 | 0.00 | 0.04 | 0.00 | 42 | 1019.0 |
| 20260905181550 | 87 | 198 | 0.0 | 6.0 | 0.00 | 0.04 | 0.00 | 42 | 1019.0 |
| 20260905181040 | 87 | 192 | 1.0 | 6.0 | 0.00 | 0.04 | 0.00 | 43 | 1019.1 |
| 20260905180539 | 87 | 243 | 2.0 | 5.0 | 0.00 | 0.04 | 0.00 | 44 | 1019.2 |
| 20260905180037 | 86 | 238 | 2.0 | 5.0 | 0.00 | 0.04 | 0.00 | 43 | 1019.1 |
| 20260905175537 | 87 | 328 | 1.0 | 7.0 | 0.00 | 0.04 | 0.00 | 44 | 1019.2 |
| 20260905175035 | 86 | 146 | 1.0 | 7.0 | 0.00 | 0.04 | 0.00 | 44 | 1019.2 |
| 20260905174535 | 86 | 221 | 3.0 | 7.0 | 0.00 | 0.04 | 0.00 | 46 | 1019.3 |
| 20260905174033 | 86 | 200 | 3.0 | 8.0 | 0.00 | 0.04 | 0.00 | 45 | 1019.3 |
| 20260905173532 | 85 | 184 | 4.0 | 8.0 | 0.00 | 0.04 | 0.00 | 47 | 1019.4 |
| 20260905173033 | 85 | 321 | 3.0 | 6.0 | 0.00 | 0.04 | 0.00 | 47 | 1019.4 |
| 20260905172530 | 84 | 206 | 1.0 | 7.0 | 0.00 | 0.04 | 0.00 | 48 | 1019.4 |
| 20260905172030 | 85 | 227 | 2.0 | 7.0 | 0.00 | 0.04 | 0.00 | 48 | 1019.5 |
| 20260905171528 | 84 | 240 | 1.0 | 5.0 | 0.00 | 0.04 | 0.00 | 50 | 1019.5 |
| 20260905171030 | 84 | 221 | 1.0 | 6.0 | 0.00 | 0.04 | 0.00 | 51 | 1019.5 |
| 20260905170527 | 84 | 132 | 3.0 | 6.0 | 0.00 | 0.04 | 0.00 | 50 | 1019.5 |
| 20260905170026 | 83 | 190 | 1.0 | 6.0 | 0.00 | 0.04 | 0.00 | 49 | 1019.5 |
| 20260905165525 | 84 | 200 | 2.0 | 5.0 | 0.00 | 0.04 | 0.00 | 50 | 1019.4 |
| 20260905165022 | 83 | 119 | 0.0 | 4.0 | 0.00 | 0.04 | 0.00 | 52 | 1019.5 |
| 20260905164521 | 81 | 329 | 0.0 | 5.0 | 0.00 | 0.04 | 0.00 | 55 | 1019.5 |
| 20260905164020 | 82 | 290 | 1.0 | 5.0 | 0.00 | 0.04 | 0.00 | 55 | 1019.5 |
| 20260905163519 | 81 | 297 | 0.0 | 2.0 | 0.00 | 0.04 | 0.00 | 55 | 1019.6 |
| 20260905163019 | 80 | 297 | 0.0 | 4.0 | 0.00 | 0.04 | 0.00 | 55 | 1019.6 |
| 20260905162519 | 81 | 223 | 0.0 | 4.0 | 0.00 | 0.04 | 0.00 | 57 | 1019.6 |
| 20260905162017 | 80 | 223 | 0.0 | 5.0 | 0.00 | 0.04 | 0.00 | 56 | 1019.6 |
| 20260905161515 | 80 | 269 | 0.0 | 5.0 | 0.00 | 0.04 | 0.00 | 56 | 1019.6 |
| 20260905161014 | 80 | 298 | 0.0 | 5.0 | 0.00 | 0.04 | 0.00 | 58 | 1019.6 |
| 20260905160512 | 80 | 234 | 1.0 | 5.0 | 0.00 | 0.04 | 0.00 | 58 | 1019.6 |
| 20260905160011 | 80 | 269 | 0.0 | 5.0 | 0.00 | 0.04 | 0.00 | 58 | 1019.6 |
| 20260905155512 | 79 | 197 | 2.0 | 5.0 | 0.00 | 0.04 | 0.00 | 59 | 1019.6 |
| 20260905155008 | 79 | 242 | 1.0 | 5.0 | 0.00 | 0.04 | 0.00 | 59 | 1019.6 |
| 20260905154506 | 78 | 228 | 2.0 | 5.0 | 0.00 | 0.04 | 0.00 | 60 | 1019.6 |
| 20260905154005 | 78 | 195 | 1.0 | 5.0 | 0.00 | 0.04 | 0.00 | 61 | 1019.6 |
| 20260905153504 | 78 | 180 | 2.0 | 5.0 | 0.00 | 0.04 | 0.00 | 60 | 1019.6 |
| 20260905153002 | 78 | 172 | 1.0 | 6.0 | 0.00 | 0.04 | 0.00 | 61 | 1019.7 |
| 20260905152501 | 78 | 192 | 1.0 | 6.0 | 0.00 | 0.04 | 0.00 | 62 | 1019.6 |
| 20260905152104 | 78 | 205 | 1.0 | 5.0 | 0.00 | 0.04 | 0.00 | 61 | 1019.6 |
| 20260905151608 | 78 | 195 | 1.0 | 6.0 | 0.00 | 0.04 | 0.00 | 62 | 1019.6 |
| 20260905151059 | 77 | 181 | 1.0 | 6.0 | 0.00 | 0.04 | 0.00 | 63 | 1019.6 |
| 20260905150557 | 77 | 220 | 0.0 | 5.0 | 0.00 | 0.04 | 0.00 | 63 | 1019.6 |
| 20260905150057 | 76 | 220 | 1.0 | 5.0 | 0.00 | 0.04 | 0.00 | 64 | 1019.5 |
| 20260905145556 | 76 | 155 | 2.0 | 6.0 | 0.00 | 0.04 | 0.00 | 66 | 1019.5 |
| 20260905145054 | 76 | 172 | 2.0 | 6.0 | 0.00 | 0.04 | 0.00 | 65 | 1019.6 |
| 20260905144554 | 76 | 131 | 4.0 | 7.0 | 0.00 | 0.04 | 0.00 | 65 | 1019.5 |
| 20260905144052 | 75 | 125 | 2.0 | 8.0 | 0.00 | 0.04 | 0.00 | 67 | 1019.5 |
| 20260905143551 | 75 | 148 | 3.0 | 8.0 | 0.00 | 0.04 | 0.00 | 68 | 1019.5 |
| 20260905143050 | 74 | 156 | 2.0 | 6.0 | 0.00 | 0.04 | 0.00 | 69 | 1019.5 |
| 20260905142550 | 74 | 172 | 3.0 | 6.0 | 0.00 | 0.04 | 0.00 | 69 | 1019.5 |
| 20260905142053 | 74 | 215 | 1.0 | 7.0 | 0.00 | 0.04 | 0.00 | 69 | 1019.5 |
| 20260905141548 | 74 | 185 | 3.0 | 6.0 | 0.00 | 0.04 | 0.00 | 69 | 1019.4 |
| 20260905141050 | 74 | 128 | 3.0 | 6.0 | 0.00 | 0.04 | 0.00 | 69 | 1019.4 |
| 20260905140546 | 73 | 163 | 2.0 | 6.0 | 0.00 | 0.04 | 0.00 | 70 | 1019.3 |
| 20260905140048 | 73 | 167 | 3.0 | 8.0 | 0.00 | 0.04 | 0.00 | 69 | 1019.3 |
| 20260905135545 | 73 | 161 | 2.0 | 8.0 | 0.00 | 0.05 | 0.00 | 70 | 1019.3 |
| 20260905135042 | 73 | 148 | 2.0 | 6.0 | 0.00 | 0.05 | 0.00 | 71 | 1019.2 |
| 20260905134541 | 72 | 142 | 3.0 | 7.0 | 0.00 | 0.05 | 0.00 | 71 | 1019.2 |
| 20260905134040 | 72 | 134 | 3.0 | 7.0 | 0.00 | 0.05 | 0.00 | 71 | 1019.1 |
| 20260905133538 | 72 | 150 | 4.0 | 6.0 | 0.00 | 0.05 | 0.00 | 72 | 1019.0 |
| 20260905133044 | 72 | 126 | 2.0 | 6.0 | 0.00 | 0.05 | 0.00 | 72 | 1019.0 |
| 20260905132537 | 71 | 126 | 3.0 | 6.0 | 0.00 | 0.05 | 0.00 | 72 | 1019.0 |
| 20260905132036 | 71 | 133 | 2.0 | 6.0 | 0.00 | 0.05 | 0.00 | 73 | 1019.0 |
| 20260905131541 | 71 | 118 | 1.0 | 5.0 | 0.00 | 0.05 | 0.00 | 73 | 1018.9 |
| 20260905131036 | 71 | 120 | 3.0 | 6.0 | 0.00 | 0.05 | 0.00 | 73 | 1018.9 |
| 20260905130534 | 71 | 138 | 3.0 | 6.0 | 0.00 | 0.05 | 0.00 | 73 | 1018.8 |
| 20260905130033 | 71 | 142 | 1.0 | 4.0 | 0.00 | 0.05 | 0.00 | 72 | 1018.8 |
| 20260905125532 | 71 | 146 | 0.0 | 4.0 | 0.00 | 0.08 | 0.00 | 72 | 1018.7 |
| 20260905125031 | 71 | 139 | 0.0 | 6.0 | 0.00 | 0.08 | 0.00 | 71 | 1018.7 |
| 20260905124534 | 71 | 148 | 3.0 | 5.0 | 0.00 | 0.08 | 0.00 | 71 | 1018.6 |
| 20260905124032 | 71 | 147 | 1.0 | 4.0 | 0.00 | 0.08 | 0.00 | 70 | 1018.6 |
| 20260905123531 | 71 | 144 | 1.0 | 4.0 | 0.00 | 0.08 | 0.00 | 70 | 1018.5 |
| 20260905123028 | 71 | 152 | 1.0 | 4.0 | 0.00 | 0.08 | 0.00 | 70 | 1018.5 |
| 20260905122528 | 71 | 152 | 1.0 | 3.0 | 0.00 | 0.08 | 0.00 | 70 | 1018.5 |
| 20260905122028 | 71 | 152 | 0.0 | 4.0 | 0.00 | 0.08 | 0.00 | 69 | 1018.4 |
| 20260905121527 | 71 | 152 | 0.0 | 6.0 | 0.00 | 0.08 | 0.00 | 69 | 1018.5 |
| 20260905121028 | 71 | 168 | 1.0 | 6.0 | 0.00 | 0.08 | 0.00 | 69 | 1018.5 |
| 20260905120527 | 71 | 146 | 1.0 | 5.0 | 0.00 | 0.08 | 0.00 | 69 | 1018.4 |
| 20260905120026 | 71 | 165 | 1.0 | 7.0 | 0.00 | 0.08 | 0.00 | 69 | 1018.4 |
| 20260905115526 | 71 | 151 | 1.0 | 7.0 | 0.00 | 0.09 | 0.00 | 69 | 1018.4 |
| 20260905115027 | 71 | 159 | 2.0 | 7.0 | 0.00 | 0.09 | 0.00 | 69 | 1018.4 |
| 20260905114524 | 71 | 171 | 0.0 | 8.0 | 0.00 | 0.09 | 0.00 | 68 | 1018.3 |
| 20260905114023 | 71 | 172 | 3.0 | 8.0 | 0.00 | 0.09 | 0.00 | 68 | 1018.3 |
| 20260905113523 | 71 | 178 | 2.0 | 5.0 | 0.00 | 0.09 | 0.00 | 69 | 1018.4 |
| 20260905113022 | 71 | 194 | 1.0 | 5.0 | 0.00 | 0.09 | 0.00 | 70 | 1018.3 |
| 20260905112522 | 71 | 194 | 1.0 | 5.0 | 0.00 | 0.09 | 0.00 | 69 | 1018.2 |
| 20260905112024 | 71 | 41 | 0.0 | 2.0 | 0.00 | 0.09 | 0.00 | 71 | 1018.2 |
| 20260905111529 | 71 | 41 | 0.0 | 2.0 | 0.00 | 0.09 | 0.00 | 69 | 1018.1 |
| 20260905111022 | 71 | 41 | 1.0 | 2.0 | 0.00 | 0.09 | 0.00 | 68 | 1018.1 |
| 20260905110519 | 71 | 41 | 0.0 | 1.0 | 0.00 | 0.09 | 0.00 | 68 | 1017.9 |
| 20260905110034 | 71 | 41 | 0.0 | 4.0 | 0.00 | 0.09 | 0.00 | 70 | 1018.0 |
| 20260905105520 | 71 | 41 | 1.0 | 3.0 | 0.00 | 0.10 | 0.00 | 70 | 1018.0 |
| 20260905105020 | 70 | 41 | 0.0 | 2.0 | 0.00 | 0.10 | 0.00 | 70 | 1018.0 |
| 20260905104521 | 71 | 41 | 0.0 | 1.0 | 0.00 | 0.10 | 0.00 | 70 | 1018.0 |
| 20260905104017 | 71 | 41 | 0.0 | 0.0 | 0.00 | 0.10 | 0.00 | 69 | 1017.9 |
| 20260905103519 | 71 | 41 | 0.0 | 0.0 | 0.00 | 0.10 | 0.00 | 70 | 1017.9 |
| 20260905103017 | 71 | 41 | 0.0 | 0.0 | 0.00 | 0.10 | 0.00 | 70 | 1017.8 |
| 20260905102520 | 71 | 41 | 0.0 | 0.0 | 0.00 | 0.10 | 0.00 | 69 | 1017.7 |
| 20260905102016 | 71 | 41 | 0.0 | 1.0 | 0.00 | 0.10 | 0.00 | 69 | 1017.7 |
| 20260905101516 | 71 | 41 | 0.0 | 1.0 | 0.00 | 0.10 | 0.00 | 68 | 1017.7 |
| 20260905101015 | 72 | 41 | 0.0 | 1.0 | 0.00 | 0.10 | 0.00 | 69 | 1017.6 |
| 20260905100515 | 71 | 41 | 0.0 | 1.0 | 0.00 | 0.10 | 0.00 | 70 | 1017.6 |
| 20260905100015 | 71 | 41 | 0.0 | 0.0 | 0.00 | 0.10 | 0.00 | 70 | 1017.7 |
| 20260905095519 | 71 | 41 | 0.0 | 1.0 | 0.00 | 0.10 | 0.00 | 70 | 1017.7 |
| 20260905095016 | 72 | 41 | 0.0 | 1.0 | 0.00 | 0.10 | 0.00 | 70 | 1017.7 |
| 20260905094514 | 72 | 41 | 0.0 | 0.0 | 0.00 | 0.10 | 0.00 | 69 | 1017.6 |
| 20260905094012 | 72 | 41 | 0.0 | 1.0 | 0.00 | 0.10 | 0.00 | 68 | 1017.5 |
| 20260905093512 | 72 | 41 | 0.0 | 2.0 | 0.00 | 0.10 | 0.00 | 66 | 1017.5 |
| 20260905093015 | 72 | 41 | 0.0 | 2.0 | 0.00 | 0.10 | 0.00 | 66 | 1017.5 |
| 20260905092511 | 72 | 41 | 0.0 | 1.0 | 0.00 | 0.10 | 0.00 | 66 | 1017.5 |
| 20260905092011 | 72 | 41 | 0.0 | 2.0 | 0.00 | 0.10 | 0.00 | 67 | 1017.5 |
| 20260905091514 | 72 | 41 | 0.0 | 2.0 | 0.00 | 0.10 | 0.00 | 67 | 1017.4 |
| 20260905091010 | 73 | 1 | 0.0 | 2.0 | 0.00 | 0.10 | 0.00 | 69 | 1017.5 |
| 20260905090509 | 73 | 1 | 0.0 | 1.0 | 0.00 | 0.10 | 0.00 | 67 | 1017.5 |
| 20260905090016 | 73 | 1 | 0.0 | 1.0 | 0.00 | 0.10 | 0.00 | 67 | 1017.5 |
| 20260905085509 | 73 | 1 | 0.0 | 1.0 | 0.00 | 0.10 | 0.00 | 67 | 1017.5 |
| 20260905085008 | 73 | 1 | 0.0 | 1.0 | 0.00 | 0.10 | 0.00 | 66 | 1017.5 |
| 20260905084508 | 73 | 1 | 0.0 | 2.0 | 0.00 | 0.10 | 0.00 | 66 | 1017.6 |
| 20260905084007 | 73 | 1 | 0.0 | 2.0 | 0.00 | 0.10 | 0.00 | 68 | 1017.6 |
| 20260905083507 | 73 | 1 | 0.0 | 2.0 | 0.00 | 0.10 | 0.00 | 68 | 1017.6 |
| 20260905083007 | 74 | 1 | 0.0 | 2.0 | 0.00 | 0.10 | 0.00 | 67 | 1017.5 |
| 20260905082506 | 74 | 1 | 0.0 | 1.0 | 0.00 | 0.10 | 0.00 | 66 | 1017.5 |
| 20260905082008 | 74 | 1 | 0.0 | 1.0 | 0.00 | 0.10 | 0.00 | 68 | 1017.5 |
| 20260905081505 | 74 | 1 | 0.0 | 1.0 | 0.00 | 0.10 | 0.00 | 67 | 1017.6 |
| 20260905081006 | 74 | 1 | 0.0 | 1.0 | 0.00 | 0.10 | 0.00 | 65 | 1017.5 |
| 20260905080503 | 74 | 1 | 0.0 | 0.0 | 0.00 | 0.10 | 0.00 | 66 | 1017.5 |
| 20260905080004 | 74 | 1 | 0.0 | 2.0 | 0.00 | 0.10 | 0.00 | 64 | 1017.5 |
| 20260905075502 | 75 | 1 | 0.0 | 2.0 | 0.00 | 0.10 | 0.00 | 62 | 1017.5 |
| 20260905075003 | 75 | 1 | 0.0 | 2.0 | 0.00 | 0.10 | 0.00 | 62 | 1017.6 |
| 20260905074501 | 75 | 1 | 1.0 | 4.0 | 0.00 | 0.10 | 0.00 | 63 | 1017.6 |
| 20260905074000 | 74 | 1 | 1.0 | 3.0 | 0.00 | 0.10 | 0.00 | 64 | 1017.7 |
| 20260905073602 | 74 | 1 | 0.0 | 1.0 | 0.00 | 0.10 | 0.00 | 65 | 1017.7 |
| 20260905073101 | 75 | 1 | 0.0 | 1.0 | 0.00 | 0.10 | 0.00 | 65 | 1017.7 |
| 20260905072558 | 75 | 1 | 0.0 | 2.0 | 0.00 | 0.10 | 0.00 | 63 | 1017.8 |
| 20260905072059 | 76 | 1 | 0.0 | 2.0 | 0.00 | 0.10 | 0.00 | 62 | 1017.8 |
| 20260905071558 | 76 | 1 | 0.0 | 5.0 | 0.00 | 0.10 | 0.00 | 61 | 1017.8 |
| 20260905071058 | 76 | 1 | 1.0 | 5.0 | 0.00 | 0.10 | 0.00 | 61 | 1017.7 |
| 20260905070555 | 76 | 1 | 1.0 | 3.0 | 0.00 | 0.10 | 0.00 | 61 | 1017.9 |
| 20260905070055 | 76 | 1 | 2.0 | 4.0 | 0.00 | 0.10 | 0.00 | 61 | 1017.8 |
| 20260905065554 | 76 | 56 | 0.0 | 4.0 | 0.00 | 0.10 | 0.00 | 59 | 1017.8 |
| 20260905065054 | 77 | 56 | 0.0 | 2.0 | 0.00 | 0.10 | 0.00 | 60 | 1017.7 |
| 20260905064552 | 77 | 56 | 0.0 | 2.0 | 0.00 | 0.10 | 0.00 | 58 | 1017.7 |
| 20260905064051 | 77 | 56 | 0.0 | 2.0 | 0.00 | 0.10 | 0.00 | 58 | 1017.7 |
| 20260905063551 | 77 | 56 | 0.0 | 4.0 | 0.00 | 0.10 | 0.00 | 58 | 1017.7 |
| 20260905063055 | 77 | 56 | 0.0 | 4.0 | 0.00 | 0.10 | 0.00 | 57 | 1017.7 |
| 20260905062551 | 77 | 38 | 0.0 | 1.0 | 0.00 | 0.10 | 0.00 | 58 | 1017.7 |
| 20260905062049 | 77 | 38 | 0.0 | 1.0 | 0.00 | 0.10 | 0.00 | 57 | 1017.7 |
| 20260905061556 | 78 | 38 | 0.0 | 2.0 | 0.00 | 0.10 | 0.00 | 57 | 1017.8 |
| 20260905061049 | 78 | 38 | 0.0 | 4.0 | 0.00 | 0.10 | 0.00 | 56 | 1017.8 |
| 20260905060546 | 78 | 38 | 0.0 | 4.0 | 0.00 | 0.10 | 0.00 | 55 | 1017.7 |
| 20260905060045 | 78 | 13 | 0.0 | 4.0 | 0.00 | 0.10 | 0.00 | 55 | 1017.7 |